Regional Weather Roundup
Issued by NWS

Home | Current Version | Previous Version | Text Only | Print | Product List | Glossary On
Versions: 1 2 3 4 5 6 7 8 9 10 11 12 13 14 15 16 17 18 19 20 21 22 23 24 25 26 27 28 29 30 31 32 33 34 35 36 37 38 39 40 41 42 43 44 45 46 47 48 49 50
000
ASUS42 KTBW 280510
RWRFL
FLORIDA REGIONAL WEATHER ROUNDUP
NATIONAL WEATHER SERVICE TAMPA BAY RUSKIN FL
1200 AM EST SAT FEB 28 2015

NOTE: "FAIR" INDICATES FEW OR NO CLOUDS BELOW 12,000 FEET WITH NO
SIGNIFICANT WEATHER AND/OR OBSTRUCTIONS TO VISIBILITY.


FLZ001>010-012>015-112-114-115-280600-
PANHANDLE FLORIDA

CITY           SKY/WX    TMP DP  RH WIND       PRES   REMARKS
PENSACOLA      PTCLDY    44  31  60 N10       30.39S WCI  39
PENSACOLA NAS  PTCLDY    46  30  53 N15       30.38S WCI  40
MILTON NAS     PTCLDY    41  29  62 N8        30.40S WCI  36
CRESTVIEW      PTCLDY    42  32  67 N5        30.41S WCI  39
DUKE FIELD     MOCLDY    40  32  71 N8        30.37F WCI  35
VALPARAISO     MOCLDY    44  32  62 N10       30.37S WCI  38
MARY ESTHER    PTCLDY    44  29  56 N13       30.36S WCI  37
TRI COUNTY     FAIR      42  38  85 CALM      30.39S
PANAMA CITY    FAIR      46  39  76 N5        30.35F WCI  44
TYNDALL AFB    CLOUDY    48  41  76 NE6       30.36S
APALACHICOLA   CLOUDY    50  40  68 NE9       30.35R

STATION/POSITION SKY/WX   TEMP    WIND        PRES    WAVE   SWELL
                          AIR SEA DIR/SP/G            HT/PER HT/PER
                          (F)     (DEG/KT/KT) (MB)    (FT/S) (FT/S)
30.1N   87.6W              52 62   30/ 23/ 27 1027.5R   3/ 4
29.2N   88.2W              59 69   50/ 19/ 23 1027.5R   5/ 6
28.7N   86.0W              58 67   70/ 19/ 25 1026.1R   6/ 6
PANAMA CITY BEAC           49 56   50/  4/  7 1027.8R
CAPE SAN BLAS    NOT AVBL
TOWER C                    53      60/ 25/ 27 1026.4S
28.5N   84.5W              56 65   60/ 21/ 25 1024.9F   6/ 6

$$
FLZ011-016>038-118-127-128-134-139-239-280600-
NORTH FLORIDA

CITY           SKY/WX    TMP DP  RH WIND       PRES   REMARKS
MARIANNA       MOCLDY    45  40  82 E5        30.37F WCI  43
TALLAHASSEE    CLOUDY    50  39  66 NE7       30.37S
PERRY          CLOUDY    47  39  72 NE5       30.36F
CROSS CITY       N/A     50  37  61 NE9       30.33F
LAKE CITY      CLOUDY    46  37  71 NE8       30.36S WCI  42
GAINESVILLE    CLOUDY    49  41  74 NE9       30.33F WCI  45
MAYPORT NAS    CLOUDY    54  47  77 N17G28    30.35S
JACKSONVILLE   CLOUDY    51  43  74 N14       30.37S
JAX NAS        CLOUDY    56  43  61 N18       30.36S
JAX CRAIG      CLOUDY    53  44  71 N13       30.35S
JAX CECIL      CLOUDY    50  41  71 N7        30.36R
FERNANDINA BEA CLOUDY    55  46  71 NE13G23   30.35S
ST AUGUSTINE   CLOUDY    55  50  83 N15       30.33F

STATION/POSITION SKY/WX   TEMP    WIND        PRES    WAVE   SWELL
                          AIR SEA DIR/SP/G            HT/PER HT/PER
                          (F)     (DEG/KT/KT) (MB)    (FT/S) (FT/S)
SHELL POINT      NOT AVBL
KEATON BEACH               48      40/  7/ 13 1027.6S
CEDAR KEY                  50      50/ 12/ 15 1026.9R
FERNANDINA                 51 55   30/ 10/ 16 1027.7R
30.7N   81.3W                 53                N/A     6/ 5   2/11
MAYPORT                    53 56   30/ 19/ 21 1027.4F
31.4N   80.9W              52 52   40/ 19/ 23 1029.0R   6/ 7   2/10
ST AUGUSTINE               55      10/ 22/ 24 1026.9F

$$
FLZ040-043>046-052-053-057-058-063-144-280600-
INTERIOR CENTRAL FLORIDA

CITY           SKY/WX    TMP DP  RH WIND       PRES   REMARKS
OCALA          CLOUDY    52  43  71 NE7       30.32S
THE VILLAGES     N/A     54  48  82 N9        30.20F HAZE
LEESBURG       CLOUDY    53  48  83 N8        30.30S
SANFORD        CLOUDY    57  53  86 N8        30.27F
ORLANDO INTL   CLOUDY    57  53  86 N12       30.27S
WINTER HAVEN   CLOUDY    55  50  83 N13       30.27S
LAKELAND       CLOUDY    54  50  87 NE8       30.26S
BARTOW         CLOUDY    54  52  94 NE10      30.27R
OKEECHOBEE     CLOUDY    59  59 100 N8        30.22S FOG

$$
FLZ041-047-054-059-064-141-147-280600-
EAST CENTRAL FLORIDA

CITY           SKY/WX    TMP DP  RH WIND       PRES   REMARKS
DAYTONA BEACH  CLOUDY    58  55  90 N9        30.28F
DELAND         CLOUDY   N/A N/A N/A N8        30.29S
JFK SPACE CTR  CLOUDY    59  58  94 NW2       30.25S FOG
CAPE CANAVERAL PTCLDY    64  62  95 NE6       30.24S
PATRICK AFB    CLOUDY    64  64  99 NE10      30.24S
MELBOURNE      CLOUDY    64  63  96 NE13      30.23S
VERO BEACH     CLOUDY    67  62  84 E14       30.23R
FT PIERCE      LGT RAIN  67  65  93 E10G16    30.21F
STUART         CLOUDY    68  64  88 E16       30.21F

STATION/POSITION SKY/WX   TEMP    WIND        PRES    WAVE   SWELL
                          AIR SEA DIR/SP/G            HT/PER HT/PER
                          (F)     (DEG/KT/KT) (MB)    (FT/S) (FT/S)
28.5N   80.2W              67 69   70/ 17/ 21 1024.0F
28.9N   78.5W              67 71   60/ 21/ 25 1024.6R   8/ 6   5/13
TRIDENT PIER     NOT AVBL
28.4N   80.5W                 63                N/A     3/10   2/11
27.6N   80.2W                 71                N/A     6/ 6   2/13

$$
FLZ050-056-061-142-242-148-248-149-249-151-251-155-255-
160-260-280600-
WEST CENTRAL FLORIDA

CITY           SKY/WX    TMP DP  RH WIND       PRES   REMARKS
CRYSTAL RIVER  CLOUDY    52  43  71 NE13      30.30F
INVERNESS      CLOUDY    52  43  71 NE12      30.31F
BROOKSVILLE    CLOUDY    54  46  74 NE10      30.29R
ZEPHYRHILLS    CLOUDY    54  46  76 CALM      30.28R
CLEARWATER     CLOUDY    56  51  84 NE13      30.26R
TAMPA INTL     CLOUDY    56  48  74 NE10G20   30.26S
TAMPA EXEC     CLOUDY    57  50  77 NE5G16    30.26F
PLANT CITY     CLOUDY   N/A N/A N/A NE10G16   30.27S
MACDILL AFB    CLOUDY    56  53  91 NE13      30.25R
PETER O KNIGHT CLOUDY    59  52  77 NE16      30.25S
ST PETERSBURG  CLOUDY    58  53  84 NE17      30.24F
SARASOTA       CLOUDY    57  52  83 NE13      30.22S
VENICE         CLOUDY    57  55  94 NE13      30.23R

STATION/POSITION SKY/WX   TEMP    WIND        PRES    WAVE   SWELL
                          AIR SEA DIR/SP/G            HT/PER HT/PER
                          (F)     (DEG/KT/KT) (MB)    (FT/S) (FT/S)
CEDAR KEY                  50      50/ 12/ 15 1026.9R
28.5N   84.5W              56 65   60/ 21/ 25 1024.9F   6/ 6
27.3N   84.3W                 69                N/A     6/ 6
CLEARWATER BEACH           56 62   40/  8/ 13 1024.8R
MIDDLE TAMPA BAY           57      70/ 20/ 22 1024.0F
VENICE                     57 62   50/ 11/ 13 1023.0R

$$
FLZ066-069-070-075>078-162-262-165-265-280600-
SOUTHWEST FLORIDA AND KEYS

CITY           SKY/WX    TMP DP  RH WIND       PRES   REMARKS
PUNTA GORDA    CLOUDY    57  55  93 NE10      30.23S
FT MYERS       CLOUDY    58  57  97 NE8       30.20S
SOUTHWEST INTL CLOUDY    58  56  93 NE9       30.21R
NAPLES         CLOUDY    60  58  92 NE12      30.18S
MARCO ISLAND   CLOUDY    61  55  82 NE9       30.18S
IMMOKALEE      CLOUDY   N/A N/A N/A N6        30.21S
MARATHON       PTCLDY    73  71  93 NE13      30.14F
KEY WEST NAS   MOCLDY    71  68  90 NE10      30.14F
KEY WEST INTL  MOCLDY    72  69  90 NE8       30.15F

STATION/POSITION SKY/WX   TEMP    WIND        PRES    WAVE   SWELL
                          AIR SEA DIR/SP/G            HT/PER HT/PER
                          (F)     (DEG/KT/KT) (MB)    (FT/S) (FT/S)
VENICE                     57 62   50/ 11/ 13 1023.0R
NAPLES                     60 66   60/  7/ 14 1021.8S
26.0N   85.6W              67 77   50/ 14/ 19 1022.3R   7/ 7
DRY TORTUGAS               67      60/ 14/ 16 1021.0R
NW FL BAY                  68      60/ 14/ 16 1021.6R
SAND KEY                   72      60/ 16/ 18 1020.4F
SOMBRERO KEY               72      50/ 14/ 15 1021.1F
LONG KEY                   71 76   40/ 17/ 19 1021.9F
MOLASSES REEF              73 74   10/ 12/ 13 1020.9F

$$
FLZ067-068-071>074-168-172>174-280600-
SOUTHEAST FLORIDA

CITY           SKY/WX    TMP DP  RH WIND       PRES   REMARKS
W PALM BEACH   LGT RAIN  71  68  90 NE13G21   30.18S
FT LAUDER-EXEC MOCLDY    73  70  90 NE9       30.17S
FT LAUDERDALE  MOCLDY    73  70  90 NE12      30.16S
POMPANO BEACH  MOCLDY    73  68  84 NE12      30.17F
PEMBROKE PINES CLOUDY    74  69  85 NE10      30.18S
OPA LOCKA      CLOUDY    70  66  87 NW5       30.17S
MIAMI          MOCLDY    70  66  87 NW6       30.17S
WEST KENDALL   CLOUDY    66  64  93 NW9       30.17S
HOMESTEAD      PTCLDY    69  65  88 NW6       30.16S

STATION/POSITION SKY/WX   TEMP    WIND        PRES    WAVE   SWELL
                          AIR SEA DIR/SP/G            HT/PER HT/PER
                          (F)     (DEG/KT/KT) (MB)    (FT/S) (FT/S)
PORT EVERGLADES            74      60/ 14/ 17 1021.3
VIRGINIA KEY               74 74   60/  8/ 12 1020.7S
LAKE WORTH                 72 72   60/ 19/ 21 1021.7S
SETTLEMENT POINT           72      60/ 19/ 22 1023.0S

$$




USA.gov is the U.S. government's official web portal to all federal, state and local government web resources and services.